Location: Dayton
(39.7590°N, 84.1920°W)
Time: 01:00:41
(UTC-04:00)

ATLAS CENTAUR R/B - Visible Passes

Search period start: 30 July 2014 00:00
Search period end: 09 August 2014 00:00
Orbit: 233 x 9488 km, 57.3° (Epoch: 30 May)

Date Brightness Start Highest point End Pass type
(mag) Time Alt. Az. Time Alt. Az. Time Alt. Az.
30 Jul 7.8 00:00:00 27° NW 00:30:41 41° W 01:19:02 10° SSW visible
30 Jul 7.6 22:32:00 10° NW 23:21:38 57° WSW 00:13:30 12° S visible
31 Jul 7.6 21:20:15 10° NW 22:09:50 75° WSW 23:07:46 10° SSE visible
01 Aug 8.1 00:58:51 10° NW 01:31:53 21° W 02:07:51 10° WSW visible
01 Aug 7.7 20:08:52 10° NW 20:55:06 89° NE 21:57:50 10° SSE visible
01 Aug 7.9 23:42:01 10° NW 00:25:22 36° W 01:12:07 10° SW visible
02 Aug 7.7 22:28:23 10° NW 23:16:28 52° W 00:09:06 10° SSW visible
03 Aug 7.7 21:15:57 10° NW 22:04:55 69° WSW 23:02:13 10° S visible
04 Aug 8.2 00:57:22 10° NW 01:24:52 17° WNW 01:55:09 10° WSW visible
04 Aug 7.7 20:04:02 10° NW 20:50:29 86° WSW 21:52:29 10° SSE visible
04 Aug 8.0 23:37:56 10° NW 00:18:25 31° W 01:03:09 10° SW visible
05 Aug 7.8 22:23:12 10° NW 23:09:34 47° W 00:01:20 10° SSW visible
06 Aug 7.8 21:10:03 10° NW 21:58:09 64° WSW 22:54:53 10° S visible
07 Aug 8.4 00:55:47 10° WNW 01:16:18 14° WNW 01:38:45 10° W visible
07 Aug 7.8 19:57:33 10° NW 20:43:55 82° WSW 21:45:21 10° SSE visible
07 Aug 8.1 23:32:23 10° NW 00:09:51 27° W 00:52:06 10° SW visible
08 Aug 7.9 22:16:25 10° NW 23:01:00 43° W 23:51:46 10° SSW visible
